星链-5936 (STARLINK-5936 )

导读

STARLINK-5936是美国SpaceX公司星链(Starlink)星座的卫星,于北京时间2023年3月24日发射。该卫星运行在近地轨道,轨道倾角约43度,轨道高度在482-484公里之间,每日绕地球约15.28圈。作为星链星座组网的组成部分,它为全球提供高速低延迟互联网服务,可覆盖偏远地区,支持居家上网、漫游出行及商业联网需求。

Basic Information
目录编号:
56011
目录名称:
STARLINK-5936
国际标识:
2023-042AB
轨道中心:
EARTH
卫星名称:
星链-5936
卫星全名:
星链-5936 (STARLINK-5936 )
卫星状态:
在轨 (已飞行1179 天)
发射日期:
2023-03-24 UTC
国别 :
美国 (US)
星等 :
--
Orbit Information
数据来源 国际轨道数据
星历时间: 2026-06-15T03:58:29+0800
6小时前
查看轨道信息
半长轴: 6861.203km
偏心率: 0.0001186
轨道倾角: 43.002°
近地点辐角 266.274°
升交点赤经 216.498°
平近点角 93.797°
近地点: 482.252km
远地点: 483.88km
周期: 94.267分钟
每日圈数: 15.275744
Detailed Information
固有亮度:
5
最大亮度:
2.5
卫星平台:
Starlink v1.5
覆盖范围:
全球
运营商:
太空探索技术公司
运营商所在国:
美国
制造商(研发单位):
太空探索技术公司
制造商所在国:
美国
使用方式:
暂无
Satellite Introduction
星链(Starlink)计划是由太空探索技术公司(SpaceX)提出的一个巨型低轨卫星互联网星座项目,计划在2019年至2024年间在太空搭建由约1.2万颗卫星组成的“星链”网络,其中1584颗将部署在地球上空550千米处的近地轨道,并从2020年开始工作。该卫星仍在工作。
2D Orbit Map
3D Orbit Map
Orbit Altitude Analysis Chart
Orbit Inclination Analysis Chart
Orbit Comprehensive Analysis Chart
View Comprehensive Chart